Time,TemperatureF,DewpointF,PressureIn,WindDirection,WindDirectionDegrees,WindSpeedMPH,WindSpeedGustMPH,Humidity,HourlyPrecipIn,Conditions,Clouds,dailyrainin,SoftwareType,DateUTC
2016-07-27 00:01:00,70.4,65.3,29.96,SSW,213,3.0,3.0,84,0.00,,CLR,0.00,VWS V15.00,2016-07-27 05:01:00,
2016-07-27 00:06:00,70.5,65.4,29.96,SSW,213,2.0,3.0,84,0.00,,CLR,0.00,VWS V15.00,2016-07-27 05:06:00,
2016-07-27 00:11:00,70.7,65.6,29.96,SSW,213,2.0,4.0,84,0.00,,CLR,0.00,VWS V15.00,2016-07-27 05:11:00,
2016-07-27 00:16:00,70.9,65.5,29.96,SSW,213,1.0,4.0,83,0.00,,CLR,0.00,VWS V15.00,2016-07-27 05:16:00,
2016-07-27 00:21:00,71.0,65.6,29.96,SSW,213,2.0,3.0,83,0.00,,CLR,0.00,VWS V15.00,2016-07-27 05:21:00,
2016-07-27 00:26:00,71.0,65.6,29.96,SSW,213,2.0,3.0,83,0.00,,CLR,0.00,VWS V15.00,2016-07-27 05:26:00,
2016-07-27 00:31:00,71.1,65.7,29.96,SSW,213,1.0,3.0,83,0.00,,CLR,0.00,VWS V15.00,2016-07-27 05:31:00,
2016-07-27 00:36:00,71.0,65.6,29.96,SSW,213,1.0,3.0,83,0.00,,CLR,0.00,VWS V15.00,2016-07-27 05:36:00,
2016-07-27 00:41:00,71.0,65.6,29.96,SSW,213,0.0,1.0,83,0.00,,CLR,0.00,VWS V15.00,2016-07-27 05:41:00,
2016-07-27 00:46:00,70.9,65.5,29.96,SSW,213,2.0,2.0,83,0.00,,CLR,0.00,VWS V15.00,2016-07-27 05:46:00,
2016-07-27 00:51:00,70.8,65.7,29.96,SSW,213,0.0,0.0,84,0.00,,CLR,0.00,VWS V15.00,2016-07-27 05:51:00,
2016-07-27 00:56:00,70.4,65.7,29.96,SSW,213,0.0,0.0,85,0.00,,CLR,0.00,VWS V15.00,2016-07-27 05:56:00,
2016-07-27 01:01:00,70.2,65.8,29.96,SSW,213,0.0,0.0,86,0.00,,CLR,0.00,VWS V15.00,2016-07-27 06:01:00,
2016-07-27 01:06:00,70.1,65.7,29.96,SSW,213,0.0,0.0,86,0.00,,CLR,0.00,VWS V15.00,2016-07-27 06:06:00,
2016-07-27 01:11:00,69.9,65.5,29.96,SSW,213,0.0,0.0,86,0.00,,CLR,0.00,VWS V15.00,2016-07-27 06:11:00,
2016-07-27 01:16:00,69.8,65.4,29.96,SSW,213,0.0,0.0,86,0.00,,CLR,0.00,VWS V15.00,2016-07-27 06:16:00,
2016-07-27 01:21:00,69.7,65.3,29.96,SSW,213,0.0,0.0,86,0.00,,CLR,0.00,VWS V15.00,2016-07-27 06:21:00,
2016-07-27 01:26:00,69.7,65.3,29.96,SSW,213,0.0,0.0,86,0.00,,CLR,0.00,VWS V15.00,2016-07-27 06:26:00,
2016-07-27 01:31:00,69.7,65.3,29.95,SSW,213,0.0,0.0,86,0.00,,CLR,0.00,VWS V15.00,2016-07-27 06:31:00,
2016-07-27 01:36:00,69.7,65.3,29.95,SSW,213,0.0,0.0,86,0.00,,CLR,0.00,VWS V15.00,2016-07-27 06:36:00,
2016-07-27 01:41:00,69.8,65.4,29.95,SSW,213,0.0,0.0,86,0.00,,CLR,0.00,VWS V15.00,2016-07-27 06:41:00,
2016-07-27 01:46:00,69.8,65.1,29.95,SSW,213,0.0,0.0,85,0.00,,CLR,0.00,VWS V15.00,2016-07-27 06:46:00,
2016-07-27 01:51:00,69.9,65.2,29.96,SSW,213,0.0,0.0,85,0.00,,CLR,0.00,VWS V15.00,2016-07-27 06:51:00,